LiveATC.Net - Listen to live air traffic control over the Internet!


ICAO: KGRK  IATA: GRK   Airport: Robert Gray Army Airfield
City: Fort Hood (Killeen)   State/Province: Texas
Country: United States   Continent: North America
KGRK METAR Weather: KGRK 221858Z AUTO 13010KT 8SM OVC060 14/02 A3030 RMK AO2 SLP262 T01440023
KGRK Flight Activity (FlightAware)
KGRK Airport Info   (iFlightPlanner)
KGRK VFR Sectional Chart   (iFlightPlanner) 
KGRK IFR Low Chart   (iFlightPlanner) 

KGRK Twr/App
Feed Status: DOWN
Last heard on: 2019-11-24 15:09:39 (90 days 4 hours 43 minutes ago)
Archive Access: KGRK Twr/App
FacilityFrequency
Gray Tower120.750

NOTICE

Unauthorized use prohibited. See LiveATC.net Terms of Service


Airport/ARTCC Code
Frequency Search
(e.g., 124.400, 128.75)
Site-wide search
 


Browse Feeds
Top 50 Feeds
Coverage Map
Bad Weather Areas

LiveATC FAQ
Offer LiveATC feed
Contact LiveATC.net
Press Inquiries

LiveATC on iPhone
LiveATC on Android

Windows Phone
Windows 8/10

LiveATC Mobile
(Mobile browser)

ATC Audio Archives
Interesting Recordings

LiveATC Forums


Home Page
About LiveATC.net
Make a Donation
Terms of Use
Privacy Policy

Canadian Air Freqs

AIRMETs/SIGMETs

FAA Airport Status
Nat'l Airspace Status
Arrival Demand Charts


Server Software By:
Icecast.org
Liquidsoap